FW5420 Weather Reports


time (UTC)temp
F
wind
direction
speed
knots
gust
knots
rain 1hr
in
rain 24hr
in
rain mn
in
humidity
%
barometer
mb
20260504081542 54 222 0.0 3.5 0.00 0.00 0.00 83 1006.8
20260504050022 58 233 0.0 0.0 0.00 0.00 0.00 74 1008.1
20260504044516 59 233 0.0 0.9 0.00 0.00 0.00 72 1008.4
20260504043015 60 233 0.0 0.0 0.00 0.00 0.00 71 1008.4
20260504041524 60 233 0.0 0.9 0.00 0.00 0.00 70 1008.4
20260504040012 61 233 0.9 2.6 0.00 0.00 0.00 70 1008.6
20260504034517 62 241 0.9 1.7 0.00 0.00 0.00 67 1008.6
20260504033014 62 241 0.0 2.6 0.00 0.00 0.00 65 1009.0
20260504031511 64 241 0.0 1.7 0.00 0.00 0.00 62 1008.9
20260504030010 65 248 1.7 3.5 0.00 0.00 0.00 59 1008.9
20260504024510 65 20 1.7 4.3 0.00 0.00 0.00 60 1008.8
20260504023010 64 252 0.0 1.7 0.00 0.00 0.00 62 1009.1
20260504021508 64 252 0.0 3.5 0.00 0.00 0.00 63 1009.1
20260504020010 64 250 0.9 3.5 0.00 0.00 0.00 64 1009.1
20260504014513 65 250 0.9 3.5 0.00 0.00 0.00 64 1009.1
20260504013007 66 257 1.7 2.6 0.00 0.00 0.00 61 1009.0
20260504011506 66 257 0.0 3.5 0.00 0.00 0.00 59 1009.0
20260504010005 67 302 0.9 2.6 0.00 0.00 0.00 58 1008.8
20260504004515 67 252 0.9 3.5 0.00 0.00 0.00 58 1008.4
20260504003004 67 244 1.7 3.5 0.00 0.00 0.00 58 1008.6
20260504001504 68 243 0.0 2.6 0.00 0.00 0.00 57 1008.6
20260504000002 68 243 0.0 1.7 0.00 0.00 0.00 57 1008.9
20260503234502 69 243 0.0 0.0 0.00 0.00 0.00 56 1009.1
20260503233005 69 243 0.0 6.1 0.00 0.00 0.00 54 1008.3
20260503231600 69 265 2.6 7.0 0.00 0.00 0.00 53 1009.0
20260503230103 69 254 4.3 10.4 0.00 0.00 0.00 52 1008.8
20260503224558 70 246 2.6 11.3 0.00 0.00 0.00 52 1009.4
20260503223058 70 256 4.3 9.6 0.00 0.00 0.00 53 1009.2
20260503221601 70 247 3.5 12.2 0.00 0.00 0.00 53 1008.9
20260503220057 71 263 5.2 13.0 0.00 0.00 0.00 51 1008.7
20260503214554 71 270 7.0 13.9 0.00 0.00 0.00 51 1009.0
20260503213052 71 259 4.3 10.4 0.00 0.00 0.00 51 1009.4
20260503211552 71 260 5.2 17.4 0.00 0.00 0.00 52 1009.2
20260503210050 71 232 6.1 13.9 0.00 0.00 0.00 50 1009.2
20260503204546 70 265 6.1 17.4 0.00 0.00 0.00 50 1009.7
20260503203054 70 263 9.6 13.9 0.00 0.00 0.00 50 1010.1
20260503201544 69 219 10.4 16.5 0.00 0.00 0.00 50 1009.6
20260503200038 68 239 7.0 14.8 0.00 0.00 0.00 51 1010.5
20260503194534 67 225 7.8 13.9 0.00 0.00 0.00 50 1010.7
20260503193032 67 218 7.0 14.8 0.00 0.00 0.00 50 1011.0
20260503191534 66 230 10.4 18.2 0.00 0.00 0.00 48 1011.2
20260503190028 66 236 7.8 15.6 0.00 0.00 0.00 48 1011.1
20260503184527 66 232 8.7 17.4 0.00 0.00 0.00 49 1011.5
20260503183025 65 216 6.1 17.4 0.00 0.00 0.00 48 1011.1
20260503181523 65 221 7.8 14.8 0.00 0.00 0.00 47 1012.1
20260503180022 65 223 12.2 20.9 0.00 0.00 0.00 47 1012.0
20260503174522 64 211 10.4 24.3 0.00 0.00 0.00 46 1012.0
20260503173022 64 190 11.3 21.7 0.00 0.00 0.00 46 1012.5
20260503171516 66 239 10.4 20.9 0.00 0.00 0.00 46 1012.6